Location: Bathurst
(33.4193°S, 149.5775°E)
Time: 12:53:26
(UTC+10:00)

ISS - Visible Passes

Search period start: 06 May 2021 00:00
Search period end: 16 May 2021 00:00
Orbit: 418 x 421 km, 51.6° (Epoch: 05 May)

Date Brightness Start Highest point End Pass type
(mag) Time Alt. Az. Time Alt. Az. Time Alt. Az.
06 May -1.5 17:57:12 10° S 17:58:33 12° SSE 17:59:43 10° SE visible
06 May -0.7 19:32:23 10° SW 19:32:43 12° SW 19:32:43 12° SW visible
07 May -3.0 18:45:03 10° SW 18:47:45 40° S 18:47:45 40° S visible
08 May -2.6 17:57:52 10° SSW 18:00:51 27° SE 18:03:00 15° E visible
08 May -0.8 19:34:47 10° WSW 19:36:02 17° W 19:36:02 17° W visible
09 May -2.7 18:46:59 10° WSW 18:50:15 45° NW 18:51:38 28° N visible
10 May -3.8 17:59:27 10° SW 18:02:52 90° SSW 18:06:14 10° NE visible
11 May -0.5 18:50:20 10° W 18:51:53 13° NW 18:53:26 10° NNW visible
12 May -1.1 18:01:50 10° WSW 18:04:36 23° NW 18:07:21 10° N visible
